This is the latest recevied weather packets stored in our database for station/object F5NTS. If no packets are shown the sender has not sent any weather packets the latest 10 day(s).
| Time | Temp. | Humidity | Pressure | Rain* | Wind** | Luminosity | Snow |
|---|---|---|---|---|---|---|---|
| 1777872004 | 12.78° C | 95% | 1008.9 hPa | 0 mm | - | - | - |
| 1777870204 | 11.67° C | 95% | 1008.7 hPa | 0 mm | - | - | - |
| 1777869304 | 11.67° C | 95% | 1008.6 hPa | 0 mm | - | - | - |
| 1777868404 | 11.67° C | 95% | 1008.5 hPa | 0 mm | - | - | - |
| 1777865405 | 12.78° C | 95% | 1008.6 hPa | 0 mm | - | - | - |
| 1777865104 | 12.78° C | 95% | 1008.7 hPa | 0 mm | - | - | - |
| 1777863904 | 12.78° C | 95% | 1008.8 hPa | 0 mm | - | - | - |
| 1777855504 | 12.22° C | 95% | 1008.3 hPa | 0 mm | - | - | - |
| 1777850704 | 12.78° C | 95% | 1008.5 hPa | 0 mm | - | - | - |
| 1777848904 | 12.78° C | 95% | 1008.4 hPa | 1.02 mm | - | - | - |
| 1777844705 | 13.33° C | 94% | 1008.5 hPa | 7.37 mm | - | - | - |
| 1777844404 | 13.89° C | 95% | 1008.5 hPa | 6.35 mm | - | - | - |
| 1777843804 | 14.44° C | 95% | 1008.5 hPa | 3.05 mm | - | - | - |
| 1777842305 | 14.44° C | 94% | 1008 hPa | 0 mm | - | - | - |
| 1777842004 | 14.44° C | 94% | 1008 hPa | 0 mm | - | - | - |
| 1777841404 | 14.44° C | 94% | 1008.1 hPa | 0 mm | - | - | - |
| 1777840804 | 14.44° C | 94% | 1008.2 hPa | 0 mm | - | - | - |
| 1777839305 | 13.89° C | 94% | 1008.2 hPa | 0 mm | - | - | - |
| 1777837504 | 14.44° C | 93% | 1007.9 hPa | 0 mm | - | - | - |
| 1777835404 | 15° C | 92% | 1007.7 hPa | 0 mm | - | - | - |
| 1777831504 | 16.67° C | 91% | 1007.1 hPa | 0 mm | - | - | - |
| 1777828204 | 17.78° C | 92% | 1007.5 hPa | 0 mm | - | - | - |
| 1777827304 | 17.78° C | 93% | 1007.4 hPa | 0 mm | - | - | - |
| 1777826104 | 18.33° C | 92% | 1007.1 hPa | 0 mm | - | - | - |
| 1777825804 | 18.33° C | 92% | 1007.1 hPa | 0 mm | - | - | - |
* Rain latest hour (hover to see other rain measurements)
** Current wind speed in m/s (hover to see current wind gust speed)